Weather in Dolmi

Russia / Khabarovsk Krai     47°22′26″N   135°37′21″E
temp.,
°C
wind,
m/s
gust,
m/s
humid.,
%
clouds,
%
prec.,
mm/h
press.,
hPa
HPBL,
m
27 february, sat
sat2701:00−21s129844 0.0 103520
04:00−22s129722 0.0 103620
07:00−22sse22972 0.0 103722
10:00−16s23831 0.0 1036240
13:00−9s257133 0.0 1033484
16:00−7s367066 0.0 1028589
19:00−10sse2289100 0.0 102637
22:00−10s3492100 0.0 102497
28 february, sun
sun2801:00−8s51881100 0.0 1022651
04:00−7ssw61784100 0.0 1020653
07:00−6ssw51492100 0.2 1019765
10:00−3sw51189100 0.6 1019752
13:00−2wnw4792100 0.5 1020579
16:00−5wnw4879100 1.3 1021833
19:00−10nw3879100 0.1 1024491
22:00−12wnw2783100 0.2 1026660
1 march, mon
mon101:00−14w2687100 0.0 1027237
04:00−19wnw129370 0.0 103030
07:00−21wsw22930 0.0 103250
10:00−18wsw35740 0.0 1033557
13:00−14wnw47530 0.0 10331100
16:00−13wnw47530 0.0 10331228
19:00−19nw23820 0.0 103443
22:00−21ssw128824 0.0 103520
2 march, tue
tue201:00−22s12900 0.0 103420
04:00−23sse12897 0.0 103420
07:00−22sse128787 0.0 103423
10:00−16nw117289 0.0 1033264
13:00−14nnw345930 0.0 10311035
16:00−14nnw455615 0.0 10301014
19:00−20nnw22870 0.0 103121
22:00−23n01910 0.0 103320
3 march, wed
wed301:00−24se00900 0.0 103220
04:00−24se11890 0.0 103120
07:00−24sse12890 0.0 103120
10:00−18sse23680 0.0 1030245
13:00−10sse25563 0.0 1025615
16:00−8s375847 0.0 1022737
19:00−11s2287100 0.0 102048
22:00−12sse2396100 0.1 102095